Home > Time Zones > World Clock > Weather > Italy > Milan > Past weeks

Flag for Italy Weather past 2 weeks in Milan, Italy

Now
66 °F

Broken clouds.


Feels Like: 66 °F
Forecast: 64 / 79 °F
Wind: 5 mph from Northeast

Location: Milan / Linate

Current Time: Jul 24, 2014 at 12:57:27 PM

Latest Report: Jul 24, 2014 at 12:20 PM


Visibility: N/A

Pressure: 29.89 "Hg

Humidity: 100%

Dew point: 66 °F

Location of MilanLocation

Historic Weather in Milan — Graph

°F

Milan temperature yesterday

Maximum temperature yesterday: 84 °F (at 1:20 PM)
Minimum temperature yesterday: 66 °F (at 11:20 PM)
Average temperature yesterday: 76 °F

Past Weeks' High & Low Weather Summary

 TemperatureHumidityPressure
High90 °F (Jul 17, 5:20 PM)100% (Jul 13, 12:50 AM)30.12 "Hg (Jul 13, 12:50 AM)
Low59 °F (Jul 10, 3:50 AM)32% (Jul 9, 2:50 PM)29.65 "Hg (Jul 9, 2:50 PM)
Average74 °F71%29.90 "Hg
* Reported Jul 9 2:50 PM — Jul 24 11:20 AM, Milan, Weather by CustomWeather, © 2014

Note: Actual official high and low records may vary slightly from our data, if they occured in-between our weather recording intervals... More about our weather records

Advertising

Milan weather history for previous 24 hours

 ConditionsComfort  
Time TempWeatherWind HumidityBarometerVisibility
11:20 AM
Jul 24
66 °FRain. Broken clouds.8 mph94%29.89 "Hg2 mi
10:50 AM68 °FRain. Broken clouds.2 mph88%29.89 "Hg3 mi
10:20 AM68 °FBroken clouds.2 mph88%29.89 "Hg5 mi
9:50 AM68 °FDrizzle. Fog.3 mph94%29.89 "Hg3 mi
9:20 AM68 °FLight rain. Fog.3 mph100%29.89 "Hg2 mi
8:50 AM68 °FDrizzle. Fog.3 mph100%29.89 "Hg3 mi
8:20 AM68 °FLight rain. Fog.5 mph100%29.86 "Hg2 mi
7:50 AM66 °FLight rain. Fog.3 mph100%29.86 "Hg2 mi
7:20 AM66 °FFog.5 mph100%29.86 "Hg2 mi
6:50 AM66 °FFog.2 mph100%29.86 "Hg2 mi
6:20 AM66 °FFog.2 mph100%29.86 "Hg2 mi
5:50 AM66 °FFog.5 mph100%29.86 "Hg3 mi
5:20 AM66 °FLight rain. Partly cloudy.5 mph100%29.86 "HgN/A
4:50 AM66 °FLight rain. Passing clouds.3 mph100%29.89 "HgN/A
4:20 AM68 °FLight rain. Passing clouds.2 mph100%29.89 "HgN/A
3:50 AM68 °FLight rain. Passing clouds.2 mph100%29.89 "HgN/A
3:20 AM68 °FLight rain. Passing clouds.2 mph100%29.89 "HgN/A
2:50 AM68 °FLight rain. Passing clouds.3 mph100%29.89 "HgN/A
1:50 AM68 °FLight rain. Passing clouds.1 mph100%29.92 "HgN/A
1:20 AM68 °FLight rain. Passing clouds.2 mph100%29.92 "HgN/A
12:50 AM68 °FLight rain. Passing clouds.2 mph100%29.95 "HgN/A
12:20 AM68 °FLight rain. Passing clouds.7 mph94%29.95 "HgN/A
11:50 PM
Jul 23
66 °FLight rain. Passing clouds.3 mph100%29.95 "HgN/A
11:20 PM66 °FPassing clouds.7 mph100%29.95 "HgN/A
10:50 PM68 °FPassing clouds.5 mph88%29.95 "HgN/A
10:20 PM68 °FThunderstorms. Partly cloudy.6 mph88%29.92 "HgN/A
9:50 PM68 °FThunderstorms. Broken clouds.6 mph88%29.92 "HgN/A
8:50 PM73 °FThundershowers. Broken clouds.7 mph69%29.89 "HgN/A
8:20 PM73 °FThundershowers. Broken clouds.9 mph69%29.89 "HgN/A
7:50 PM73 °FBroken clouds.10 mph65%29.89 "HgN/A
7:20 PM81 °FPartly sunny.5 mph58%29.83 "HgN/A
6:50 PM82 °FBroken clouds.6 mph51%29.83 "HgN/A
6:20 PM82 °FScattered clouds.6 mph51%29.83 "HgN/A
5:50 PM82 °FScattered clouds.6 mph51%29.83 "HgN/A
5:20 PM82 °FScattered clouds.9 mph51%29.83 "HgN/A
4:50 PM84 °FPassing clouds.9 mph48%29.83 "HgN/A
4:20 PM84 °FPassing clouds.9 mph48%29.83 "HgN/A
3:50 PM84 °FPassing clouds.8 mph51%29.83 "HgN/A
3:20 PM84 °FPassing clouds.6 mph51%29.83 "HgN/A
2:50 PM84 °FPassing clouds.7 mph48%29.83 "HgN/A
2:20 PM84 °FPassing clouds.9 mph51%29.86 "HgN/A
1:20 PM84 °FPassing clouds.7 mph55%29.86 "HgN/A
12:50 PM82 °FPassing clouds.5 mph58%29.86 "HgN/A
12:20 PM82 °FPassing clouds.6 mph58%29.86 "HgN/A
Weather by CustomWeather, © 2014

See weather overviewHow to use our weather pages